| time (UTC) | temp F | wind direction | speed MPH | gust MPH | rain 1hr in | rain 24hr in | rain mn in | humidity % | barometer mb |
| 20260510174502 | 88 | 331 | 5.0 | 12.0 | 0.00 | 0.00 | 0.00 | 11 | 1001.1 |
| 20260510173003 | 87 | 269 | 6.0 | 18.0 | 0.00 | 0.00 | 0.00 | 12 | 1000.9 |
| 20260510171605 | 87 | 288 | 10.0 | 17.0 | 0.00 | 0.00 | 0.00 | 11 | 1001.0 |
| 20260510170113 | 87 | 300 | 8.0 | 18.0 | 0.00 | 0.00 | 0.00 | 11 | 1000.9 |
| 20260510164601 | 86 | 275 | 11.0 | 18.0 | 0.00 | 0.00 | 0.00 | 11 | 1000.9 |
| 20260510163054 | 85 | 261 | 8.0 | 20.0 | 0.00 | 0.00 | 0.00 | 12 | 1000.8 |
| 20260510161553 | 84 | 259 | 10.0 | 18.0 | 0.00 | 0.00 | 0.00 | 12 | 1000.8 |
| 20260510160058 | 83 | 223 | 12.0 | 16.0 | 0.00 | 0.00 | 0.00 | 14 | 1000.8 |
| 20260510154553 | 82 | 246 | 12.0 | 17.0 | 0.00 | 0.00 | 0.00 | 14 | 1000.7 |
| 20260510153048 | 81 | 205 | 12.0 | 17.0 | 0.00 | 0.00 | 0.00 | 16 | 1000.7 |
| 20260510151539 | 80 | 213 | 11.0 | 18.0 | 0.00 | 0.00 | 0.00 | 18 | 1000.7 |
| 20260510150037 | 79 | 207 | 10.0 | 17.0 | 0.00 | 0.00 | 0.00 | 24 | 1000.7 |
| 20260510144532 | 77 | 219 | 11.0 | 15.0 | 0.00 | 0.00 | 0.00 | 26 | 1000.6 |
| 20260510143038 | 76 | 238 | 12.0 | 17.0 | 0.00 | 0.00 | 0.00 | 28 | 1000.6 |
| 20260510141524 | 75 | 233 | 8.0 | 14.0 | 0.00 | 0.00 | 0.00 | 36 | 1000.5 |
| 20260510140022 | 73 | 207 | 8.0 | 12.0 | 0.00 | 0.00 | 0.00 | 38 | 1000.4 |
| 20260510134518 | 72 | 211 | 8.0 | 13.0 | 0.00 | 0.00 | 0.00 | 40 | 1000.2 |
| 20260510133017 | 71 | 206 | 10.0 | 17.0 | 0.00 | 0.00 | 0.00 | 41 | 1000.0 |
| 20260510131514 | 70 | 206 | 9.0 | 18.0 | 0.00 | 0.00 | 0.00 | 41 | 999.9 |
| 20260510130016 | 69 | 200 | 6.0 | 10.0 | 0.00 | 0.00 | 0.00 | 41 | 999.6 |
| 20260510124516 | 70 | 207 | 10.0 | 20.0 | 0.00 | 0.00 | 0.00 | 41 | 999.2 |
| 20260510123014 | 69 | 184 | 12.0 | 16.0 | 0.00 | 0.00 | 0.00 | 40 | 998.8 |
| 20260510121511 | 69 | 211 | 12.0 | 17.0 | 0.00 | 0.00 | 0.00 | 41 | 998.7 |
| 20260510120011 | 69 | 188 | 12.0 | 19.0 | 0.00 | 0.00 | 0.00 | 42 | 998.6 |
| 20260510114513 | 69 | 192 | 12.0 | 18.0 | 0.00 | 0.00 | 0.00 | 42 | 998.5 |
| 20260510113014 | 69 | 187 | 14.0 | 21.0 | 0.00 | 0.00 | 0.00 | 41 | 998.4 |
| 20260510111507 | 69 | 184 | 13.0 | 20.0 | 0.00 | 0.00 | 0.00 | 42 | 998.4 |
| 20260510110010 | 69 | 194 | 13.0 | 23.0 | 0.00 | 0.00 | 0.00 | 42 | 998.4 |
| 20260510104508 | 68 | 180 | 14.0 | 25.0 | 0.00 | 0.00 | 0.00 | 43 | 998.4 |
| 20260510103001 | 69 | 192 | 12.0 | 21.0 | 0.00 | 0.00 | 0.00 | 43 | 998.4 |
| 20260510101559 | 69 | 213 | 14.0 | 23.0 | 0.00 | 0.00 | 0.00 | 41 | 998.3 |
| 20260510100100 | 70 | 207 | 14.0 | 23.0 | 0.00 | 0.00 | 0.00 | 39 | 998.2 |
| 20260510094555 | 71 | 186 | 13.0 | 18.0 | 0.00 | 0.00 | 0.00 | 33 | 998.3 |
| 20260510093054 | 70 | 174 | 9.0 | 13.0 | 0.00 | 0.00 | 0.00 | 33 | 998.2 |
| 20260510091557 | 70 | 184 | 11.0 | 16.0 | 0.00 | 0.00 | 0.00 | 34 | 998.1 |
| 20260510084556 | 70 | 148 | 13.0 | 17.0 | 0.00 | 0.00 | 0.00 | 31 | 998.2 |
| 20260510083047 | 70 | 183 | 8.0 | 15.0 | 0.00 | 0.00 | 0.00 | 31 | 998.3 |
| 20260510081546 | 71 | 169 | 9.0 | 13.0 | 0.00 | 0.00 | 0.00 | 29 | 998.4 |
| 20260510080042 | 72 | 157 | 12.0 | 17.0 | 0.00 | 0.00 | 0.00 | 26 | 998.5 |
| 20260510074540 | 72 | 159 | 12.0 | 16.0 | 0.00 | 0.00 | 0.00 | 28 | 998.7 |
| 20260510073041 | 73 | 167 | 10.0 | 18.0 | 0.00 | 0.00 | 0.00 | 26 | 998.7 |
| 20260510071539 | 72 | 196 | 12.0 | 19.0 | 0.00 | 0.00 | 0.00 | 28 | 998.9 |
| 20260510070043 | 72 | 180 | 11.0 | 20.0 | 0.00 | 0.00 | 0.00 | 32 | 998.9 |
| 20260510064554 | 72 | 133 | 13.0 | 21.0 | 0.00 | 0.00 | 0.00 | 33 | 999.0 |
| 20260510063038 | 71 | 134 | 9.0 | 18.0 | 0.00 | 0.00 | 0.00 | 34 | 999.3 |
| 20260510061541 | 71 | 139 | 11.0 | 18.0 | 0.00 | 0.00 | 0.00 | 35 | 999.4 |
| 20260510060032 | 71 | 121 | 12.0 | 20.0 | 0.00 | 0.00 | 0.00 | 35 | 999.4 |
| 20260510054522 | 72 | 139 | 12.0 | 25.0 | 0.00 | 0.00 | 0.00 | 30 | 999.4 |
| 20260510053019 | 71 | 153 | 12.0 | 24.0 | 0.00 | 0.00 | 0.00 | 33 | 999.6 |
| 20260510051516 | 72 | 169 | 14.0 | 20.0 | 0.00 | 0.00 | 0.00 | 31 | 999.7 |
| 20260510050014 | 72 | 151 | 16.0 | 28.0 | 0.00 | 0.00 | 0.00 | 29 | 999.8 |
| 20260510044513 | 72 | 163 | 11.0 | 22.0 | 0.00 | 0.00 | 0.00 | 28 | 999.8 |
| 20260510043012 | 73 | 103 | 12.0 | 20.0 | 0.00 | 0.00 | 0.00 | 28 | 999.9 |
| 20260510041511 | 73 | 149 | 9.0 | 18.0 | 0.00 | 0.00 | 0.00 | 27 | 1000.0 |
| 20260510040010 | 73 | 155 | 11.0 | 23.0 | 0.00 | 0.00 | 0.00 | 27 | 1000.0 |
| 20260510034510 | 74 | 171 | 11.0 | 19.0 | 0.00 | 0.00 | 0.00 | 26 | 999.8 |
| 20260510033012 | 74 | 142 | 13.0 | 20.0 | 0.00 | 0.00 | 0.00 | 25 | 999.6 |
| 20260510031509 | 75 | 149 | 13.0 | 23.0 | 0.00 | 0.00 | 0.00 | 23 | 999.5 |
| 20260510030008 | 75 | 146 | 12.0 | 20.0 | 0.00 | 0.00 | 0.00 | 21 | 999.4 |
| 20260510024507 | 76 | 167 | 11.0 | 22.0 | 0.00 | 0.00 | 0.00 | 19 | 999.3 |
| 20260510023007 | 76 | 151 | 13.0 | 23.0 | 0.00 | 0.00 | 0.00 | 19 | 999.2 |
| 20260510021509 | 77 | 174 | 11.0 | 19.0 | 0.00 | 0.00 | 0.00 | 19 | 999.2 |
| 20260510020005 | 78 | 161 | 9.0 | 18.0 | 0.00 | 0.00 | 0.00 | 18 | 999.1 |
| 20260510014504 | 78 | 138 | 8.0 | 19.0 | 0.00 | 0.00 | 0.00 | 17 | 998.9 |
| 20260510013004 | 80 | 115 | 7.0 | 13.0 | 0.00 | 0.00 | 0.00 | 12 | 998.8 |
| 20260510011503 | 80 | 160 | 7.0 | 12.0 | 0.00 | 0.00 | 0.00 | 12 | 998.7 |
| 20260510010001 | 81 | 84 | 7.0 | 11.0 | 0.00 | 0.00 | 0.00 | 12 | 998.7 |
| 20260510004602 | 82 | 86 | 5.0 | 9.0 | 0.00 | 0.00 | 0.00 | 11 | 998.7 |
| 20260510003101 | 83 | 72 | 4.0 | 11.0 | 0.00 | 0.00 | 0.00 | 11 | 998.7 |
| 20260510001557 | 84 | 98 | 8.0 | 12.0 | 0.00 | 0.00 | 0.00 | 11 | 998.8 |
| 20260510000104 | 85 | 126 | 4.0 | 8.0 | 0.00 | 0.00 | 0.00 | 10 | 999.0 |
| 20260509234604 | 86 | 340 | 3.0 | 8.0 | 0.00 | 0.00 | 0.00 | 10 | 999.2 |
| 20260509233056 | 86 | 67 | 4.0 | 12.0 | 0.00 | 0.00 | 0.00 | 10 | 999.2 |
| 20260509231607 | 86 | 57 | 2.0 | 6.0 | 0.00 | 0.00 | 0.00 | 10 | 999.3 |
| 20260509230059 | 85 | 29 | 3.0 | 10.0 | 0.00 | 0.00 | 0.00 | 10 | 999.5 |
| 20260509224546 | 85 | 120 | 1.0 | 13.0 | 0.00 | 0.00 | 0.00 | 10 | 999.6 |
| 20260509223045 | 85 | 24 | 4.0 | 12.0 | 0.00 | 0.00 | 0.00 | 10 | 999.7 |
| 20260509221542 | 85 | 47 | 10.0 | 16.0 | 0.00 | 0.00 | 0.00 | 11 | 999.8 |
| 20260509220040 | 86 | 39 | 3.0 | 9.0 | 0.00 | 0.00 | 0.00 | 9 | 1000.0 |
| 20260509214539 | 85 | 113 | 4.0 | 13.0 | 0.00 | 0.00 | 0.00 | 10 | 1000.2 |
| 20260509213037 | 84 | 5 | 5.0 | 14.0 | 0.00 | 0.00 | 0.00 | 10 | 1000.4 |
| 20260509211534 | 85 | 5 | 4.0 | 13.0 | 0.00 | 0.00 | 0.00 | 10 | 1000.7 |
| 20260509210034 | 85 | 338 | 3.0 | 13.0 | 0.00 | 0.00 | 0.00 | 10 | 1001.1 |
| 20260509204534 | 85 | 66 | 7.0 | 11.0 | 0.00 | 0.00 | 0.00 | 11 | 1001.3 |
| 20260509203035 | 85 | 78 | 1.0 | 9.0 | 0.00 | 0.00 | 0.00 | 11 | 1001.5 |
| 20260509201525 | 84 | 72 | 4.0 | 14.0 | 0.00 | 0.00 | 0.00 | 10 | 1001.8 |
| 20260509200023 | 86 | 297 | 1.0 | 9.0 | 0.00 | 0.00 | 0.00 | 12 | 1001.9 |
| 20260509194521 | 85 | 355 | 3.0 | 10.0 | 0.00 | 0.00 | 0.00 | 11 | 1002.0 |
| 20260509193019 | 85 | 344 | 4.0 | 14.0 | 0.00 | 0.00 | 0.00 | 11 | 1002.1 |
| 20260509191516 | 84 | 74 | 5.0 | 14.0 | 0.00 | 0.00 | 0.00 | 12 | 1002.3 |
| 20260509190018 | 84 | 63 | 5.0 | 11.0 | 0.00 | 0.00 | 0.00 | 12 | 1002.4 |
| 20260509184525 | 83 | 315 | 3.0 | 8.0 | 0.00 | 0.00 | 0.00 | 13 | 1002.6 |
| 20260509183020 | 82 | 23 | 5.0 | 14.0 | 0.00 | 0.00 | 0.00 | 13 | 1002.8 |
| 20260509181516 | 83 | 40 | 8.0 | 14.0 | 0.00 | 0.00 | 0.00 | 13 | 1002.9 |
| 20260509180016 | 82 | 346 | 3.0 | 9.0 | 0.00 | 0.00 | 0.00 | 15 | 1003.0 |